カタログに戻る

CZ-6A DEB

運用中SSO
NORAD 55218·DEBRIS·🇨🇳 China

打ち上げ Nov 11, 2022 から Taiyuan Satellite Launch Center

Loading…

次のパス (今後24時間)

TLE

最新Source: Space-Track

元期: Sep 14, 2026, 11:21 UTC

1 55218U 22151WK  26257.47359534  .00001832  00000-0  89260-3 0  9996
2 55218  98.8266 261.5404 0049844  66.2306 294.4085 14.18729494197767

AllMySatでCZ-6A DEBをリアルタイム追跡

Download on the App Store